Weather History for Piney Island, NC

Change the Weather History Date:

Friday, November 30, 2012

  Actual Average (KMRH) Record (KMRH)
Temperature  
Mean Temperature 48 °F -  
Max Temperature 55 °F 63 °F 76 °F (1970)
Min Temperature 42 °F 40 °F 26 °F (1959)
Degree Days  
Heating Degree Days 16    
Moisture  
Dew Point 42 °F    
Average Humidity 78    
Maximum Humidity 96    
Minimum Humidity 49    
Precipitation  
Precipitation 0.00 in - - ()
Sea Level Pressure  
Sea Level Pressure 30.39 in    
Wind  
Wind Speed 2 mph (ENE)    
Max Wind Speed 7 mph    
Max Gust Speed -    
Visibility 9 miles    
Events      
Averages and records for this station are not official NWS values.
T = Trace of Precipitation, MM = Missing Value Source: NWS Daily Summary

Daily Weather History Graph

Daily Weather History Graph

Search for Another Location

Airport:

Trip Planner

Search our weather history database for the weather conditions in past years. The results will help you decide how hot, cold, wet, or windy it might be!

Date:

Astronomy

Nov. 30, 2012 Rise Set
Actual Time 6:55 AM EST 4:54 PM EST
Civil Twilight 6:27 AM EST 5:21 PM EST
Nautical Twilight 5:56 AM EST 5:53 PM EST
Astronomical Twilight 5:25 AM EST 6:23 PM EST
Moon 6:46 PM EST (11/30) 8:25 AM EST (11/30)
Length of Visible Light 10h 54m
Length of Day
9h 59m
Waning Gibbous, 96% of the Moon is Illuminated
Nov 30
Waning Gibbous
Dec 6
Last Quarter
Dec 13
New
Dec 20
First Quarter
Dec 28
Full

Hourly Weather History & Observations

Time (EST) Temp. Windchill Dew Point Humidity Pressure Visibility Wind Dir Wind Speed Gust Speed Precip Events Conditions
12:56 AM 45.0 °F - 37.9 °F 76% 30.42 in - Calm Calm - N/A   Clear
1:56 AM 45.0 °F - 39.9 °F 82% 30.42 in - Calm Calm - N/A   Clear
2:56 AM 43.0 °F - 39.0 °F 86% 30.41 in - Calm Calm - N/A   Clear
3:56 AM 44.1 °F - 42.1 °F 93% 30.40 in - Calm Calm - N/A   Clear
4:56 AM 45.0 °F 43.5 °F 42.1 °F 90% 30.40 in - NW 3.5 mph - N/A   Clear
5:56 AM 45.0 °F 43.5 °F 41.0 °F 86% 30.41 in - NNW 3.5 mph - N/A   Clear
6:56 AM 44.1 °F - 43.0 °F 96% 30.42 in - Calm Calm - N/A   Clear
7:56 AM 42.1 °F - 39.9 °F 92% 30.42 in - Calm Calm - N/A   Clear
8:56 AM 48.9 °F - 44.1 °F 83% 30.43 in - Calm Calm - N/A   Clear
9:56 AM 53.1 °F - 39.9 °F 61% 30.45 in - ENE 3.5 mph - N/A   Scattered Clouds
10:56 AM 55.0 °F - 39.9 °F 57% 30.44 in 10.0 mi ENE 4.6 mph - N/A   Scattered Clouds
11:56 AM 55.0 °F - 37.9 °F 53% 30.40 in 10.0 mi East 4.6 mph - N/A   Clear
12:56 PM 55.0 °F - 41.0 °F 59% 30.38 in 10.0 mi ENE 5.8 mph - N/A   Clear
1:56 PM 55.9 °F - 37.0 °F 49% 30.36 in 10.0 mi NE 6.9 mph - N/A   Clear
2:56 PM 55.0 °F - 39.0 °F 55% 30.35 in 10.0 mi NE 6.9 mph - N/A   Clear
3:56 PM 54.0 °F - 44.1 °F 69% 30.35 in 10.0 mi ENE 3.5 mph - N/A   Clear
4:56 PM 52.0 °F - 45.0 °F 77% 30.35 in 9.0 mi East 4.6 mph - N/A   Clear
5:56 PM 52.0 °F - 45.0 °F 77% 30.35 in 10.0 mi East 3.5 mph - N/A   Clear
6:56 PM 51.1 °F - 45.0 °F 80% 30.35 in 10.0 mi SE 3.5 mph - N/A   Clear
7:56 PM 46.9 °F - 44.1 °F 90% 30.35 in 7.0 mi Calm Calm - N/A   Clear
8:56 PM 46.0 °F 44.8 °F 42.1 °F 86% 30.36 in 8.0 mi SW 3.5 mph - N/A   Clear
9:56 PM 45.0 °F 43.5 °F 42.1 °F 90% 30.36 in 7.0 mi West 3.5 mph - N/A   Clear
10:56 PM 48.0 °F - 45.0 °F 89% 30.36 in 6.0 mi Calm Calm - N/A   Clear
11:56 PM 48.0 °F - 45.0 °F 89% 30.36 in 8.0 mi Calm Calm - N/A   Clear